Weather observations for the past three days for
San Antonio - Kelly Field
Imperial (Metric)
Date Time (cdt) Wind (mph) Vis. (mi.) Weather Sky Cond. Temperature (ºF) Relative Humidity Wind Chill (°F) Heat Index (°F) Pressure Precipitation (in)
Air Dwpt 6 hour altimeter (in) sea level (mb) 1 hr 3 hr 6 hr
Max. Min.
12 09:55 Calm 10.00 Mostly Cloudy SCT018 BKN100 82.6 72.5 72% 88 29.94 1013.1
12 08:55 NE 3 10.00 Partly Cloudy FEW015 SCT100 80.2 72.3 77% 84 29.93 1012.8
12 07:55 NE 5 10.00 Fair CLR 78.1 72.1 82% 81 29.92 1012.4
12 06:55 NE 5 10.00 A Few Clouds FEW017 76.3 71.8 78.1 75.7 86% 77 29.91 1012.1
12 05:55 NE 5 10.00 Partly Cloudy FEW100 SCT140 75.9 71.4 86% 76 29.89 1011.4
12 04:55 N 5 10.00 Overcast BKN019 BKN027 OVC090 77 71.4 83% 78 29.9 1011.6
12 03:55 E 6 10.00 Mostly Cloudy FEW021 BKN090 BKN110 76.8 71.6 84% 78 29.88 1011.0
12 02:55 E 5 10.00 A Few Clouds FEW095 FEW120 77.2 71.6 83% 79 29.87 1010.6
12 01:55 NE 6 10.00 Mostly Cloudy SCT016 BKN110 78.1 71.4 80% 80 29.89 1011.3
12 00:55 NE 7 10.00 Mostly Cloudy SCT016 BKN130 77.9 71.2 83.8 77.9 80% 80 29.88 1011.0
11 23:55 NE 7 10.00 Mostly Cloudy SCT100 BKN130 78.6 71.1 78% 81 29.89 1011.3
11 22:55 E 9 10.00 A Few Clouds FEW220 79.2 69.6 73% 82 29.88 1011.0
11 21:55 E 8 10.00 Fair CLR 80.2 70.3 72% 84 29.85 1010.0
11 19:55 NE 10 10.00 Mostly Cloudy FEW140 BKN200 82.6 69.6 65% 86 29.81 1008.7
11 18:55 NE 14 10.00 Mostly Cloudy BKN170 84 68 98.1 84 59% 87 29.8 1008.4
11 17:55 N 20 G 28 10.00 Partly Cloudy FEW070 SCT120 SCT200 88.9 67.1 49% 92 29.79 1007.9
11 16:55 S 5 10.00 A Few Clouds FEW065 FEW200 97 65.5 36% 100 29.77 1007.2
11 15:55 SE 6 10.00 A Few Clouds FEW055 96.1 67.1 39% 100 29.78 1007.5
11 14:55 E 3 10.00 A Few Clouds FEW050 FEW230 94.3 66.9 41% 98 29.8 1008.2
11 13:55 SE 9 10.00 Partly Cloudy FEW140 SCT190 93.4 68.7 45% 98 29.83 1009.3
11 12:55 SE 5 10.00 Partly Cloudy FEW039 SCT200 90.9 68.9 91.8 77.7 49% 96 29.86 1010.3
11 11:55 SE 7 10.00 Partly Cloudy SCT030 88.5 71.8 58% 95 29.87 1010.6
11 10:55 Calm 10.00 A Few Clouds FEW028 86.9 72.3 62% 94 29.89 1011.3
11 09:55 SW 6 10.00 Mostly Cloudy BKN018 84.7 73.8 70% 92 29.9 1011.6
11 08:55 S 5 10.00 Overcast BKN011 OVC018 81 74.5 81% 86 29.88 1011.0
11 07:55 Calm 10.00 Overcast OVC008 79.5 73.4 82% 83 29.87 1010.6
11 05:55 Calm 10.00 Mostly Cloudy BKN013 77.2 71.6 83% 79 29.83 1009.3
11 04:55 E 5 10.00 A Few Clouds FEW016 78.6 71.4 79% 81 29.84 1009.6
11 03:55 E 3 10.00 Fair CLR 77.4 70.7 80% 79 29.84 1009.6
11 02:55 Calm 10.00 Fair CLR 77.2 70.9 81% 79 29.85 1010.0
11 01:55 NE 5 10.00 Fair CLR 80.6 70.3 71% 84 29.84 1009.6
11 00:55 NE 5 10.00 Fair CLR 82.2 69.6 94.6 82.2 66% 86 29.86 1010.3
10 23:55 SE 7 10.00 Fair CLR 84.2 69.3 61% 88 29.84 1009.6
10 22:55 E 5 10.00 Fair CLR 85.5 68.4 57% 89 29.83 1009.3
10 21:55 E 7 10.00 Fair CLR 87.8 68.5 53% 92 29.8 0.0
10 20:55 E 9 10.00 Fair CLR 89.6 67.8 49% 93 29.77 0.0
10 19:55 E 10 10.00 A Few Clouds FEW250 92.3 67.8 45% 96 29.76 0.0
10 18:55 N 3 10.00 A Few Clouds FEW070 94.8 64.4 95.4 86.9 37% 97 29.75 1006.6
10 17:55 E 5 10.00 Partly Cloudy SCT060 94.3 64.8 38% 97 29.75 1006.5
10 16:55 Calm 10.00 A Few Clouds FEW055 93.4 66 41% 96 29.76 1006.9
10 15:56 NE 3 10.00 Partly Cloudy FEW050 SCT200 91.2 66.9 45% 95 29.78 1007.6
10 14:55 Calm 10.00 A Few Clouds FEW050 FEW200 90.5 69.3 50% 95 29.81 1008.7
10 13:59 Vrbl 6 10.00 Mostly Cloudy SCT038 BKN200 89.4 70 53% 95 29.83 1009.4
10 12:55 NE 3 10.00 A Few Clouds FEW180 86.9 68.7 87.1 70.2 55% 91 29.85 1010.1 0.66
10 11:55 N 13 G 23 10.00 Partly Cloudy FEW130 FEW150 SCT180 SCT210 83.5 71.8 68% 89 29.86 1010.4
10 10:55 E 13 10.00 Mostly Cloudy FEW015 BKN100 BKN250 80.6 72.7 77% 85 29.8 1008.3
10 09:56 NE 6 7.00 Mostly Cloudy BKN100 BKN250 75.2 69.8 83% 75 29.85 0.0 0.66
10 08:56 N 6 5.00 Light Rain FEW023 SCT050 OVC100 71.6 69.8 94% 29.85 0.0
10 07:57 NW 14 2.00 Thunderstorm Rain BKN014 OVC030 69.8 68 94% 29.9 0.0
10 06:55 NW 16 G 23 1.63 Heavy Rain Fog/Mist SCT002 SCT008 BKN015 OVC027 71.4 68.9 76.5 71.4 92% 29.89 1011.3 0.12 0.12
10 05:55 N 3 10.00 Mostly Cloudy BKN050 75.7 72.1 89% 76 29.81 1008.6
10 04:55 Calm 10.00 Mostly Cloudy BKN100 74.3 71.8 92% 29.81 1008.6
10 03:55 N 5 10.00 Fair CLR 74.5 71.6 91% 29.8 1008.2
10 02:55 N 8 10.00 Fair CLR 74.1 70.9 90% 29.81 1008.6
10 01:55 Calm 10.00 Fair CLR 73 70.2 91% 29.8 1008.2
10 00:55 S 8 10.00 Overcast FEW037 OVC130 74.7 69.1 99.9 72 83% 29.8 1008.2 0.45 0.88
09 23:55 SW 12 G 24 0.50 Thunderstorm Heavy Rain Fog BKN032 OVC046 72 69.4 92% 29.89 1011.4 0.43
09 23:35 NW 17 G 22 10.00 Thunderstorm Light Rain FEW033 BKN046 BKN055 OVC080 79.5 66.7 65% 82 29.88 1011.0
09 22:55 SE 15 10.00 Thunderstorm in Vicinity FEW085 SCT170 87.8 72.1 60% 95 29.81 1008.6
09 21:55 SE 13 10.00 Partly Cloudy SCT160 90.1 71.2 54% 97 29.78 1007.5
09 20:55 SE 15 G 23 10.00 Partly Cloudy SCT250 93.6 68.9 45% 99 29.74 1006.2
09 19:55 E 12 10.00 Partly Cloudy FEW120 SCT250 97 60.3 30% 97 29.72 1005.5
09 18:56 E 12 10.00 Partly Cloudy FEW070 SCT250 99.3 59.4 27% 99 29.71 1005.2
09 17:55 E 12 10.00 Partly Cloudy SCT075 101.5 59 25% 102 29.74 1006.1
09 16:55 E 8 10.00 Partly Cloudy SCT075 101.1 61.9 28% 103 29.76 1006.8
09 15:55 E 5 10.00 Partly Cloudy SCT065 99.7 62.6 30% 102 29.77 1007.2
09 14:55 SE 9 10.00 Partly Cloudy FEW065 SCT200 98.8 65.5 34% 102 29.78 1007.5
09 13:56 E 9 G 17 10.00 Partly Cloudy FEW055 SCT200 97.3 65.8 36% 101 29.81 1008.6
09 12:56 Vrbl 5 10.00 Partly Cloudy FEW045 SCT200 95.2 67.6 95.2 77.9 41% 100 29.83 1009.2
09 11:55 E 9 10.00 Partly Cloudy FEW040 SCT210 91.9 68.2 46% 96 29.85 1009.9
09 10:55 SE 10 10.00 Partly Cloudy SCT030 88.9 70.5 55% 95 29.84 1009.6
Date Time (cdt) Wind (mph) Vis. (mi.) Weather Sky Cond. Air Dwpt Max. Min. Relative Humidity Wind Chill (°F) Heat Index (°F) altimeter (in) sea level (mb) 1 hr 3 hr 6 hr
6 hour
Temperature (ºF) Pressure Precipitation (in)